Location: Tel Aviv
(32.0670°N, 34.7670°E)
Time: 02:13:14
(UTC+03:00)

Tiros 1 - Pass Details

Date: 28 January 2022
Orbit: 629 x 663 km, 48.4° (Epoch: 26 May)

Event Time Altitude Azimuth Distance (km) Brightness Sun altitude
Rises 02:04:27 0° 318° (NW) 2,987 - -57.5°
Reaches altitude 10° 02:07:26 10° 336° (NNW) 2,069 - -56.9°
Maximum altitude 02:10:51 19° 22° (NNE) 1,539 - -56.2°
Drops below altitude 10° 02:14:15 10° 68° (ENE) 2,051 - -55.5°
Sets 02:17:10 0° 87° (E) 2,952 - -54.9°
